Location: Corocito
(10.1894°N, 67.0986°W)
Time: 10:43:38
(UTC+00:00)

Daily predictions for brighter satellites

Satellite Brightness Start Highest point End
(mag) Time Altitude Azimuth Time Altitude Azimuth Time Altitude Azimuth
Gbstr 26 Del rocket 4.3 23:02:03 10° NNW 23:07:29 36° NE 23:11:57 10° ESE
Cosmos 1515 3.3 23:07:42 10° S 23:11:09 73° E 23:14:36 10° N
Cosmos 1076 Rocket 3.5 23:07:07 10° N 23:11:22 75° E 23:15:40 10° S
Cosmos 921 Rocket 3.0 23:07:42 10° S 23:12:07 76° E 23:16:34 10° NNE
SAR-Lupe-2 3.5 23:09:09 10° SSE 23:12:42 85° E 23:16:16 10° N
ATLAS 3B R/B 4.4 23:07:53 10° NNE 23:12:56 18° ENE 23:17:49 10° ESE
GPS 2-14 Rocket1 3.7 23:11:21 10° NW 23:14:00 26° NNE 23:16:38 10° ENE
Cosmos 1378 2.7 23:17:47 10° S 23:21:00 60° E 23:24:12 10° NNE
CZ-4B R/B 3.6 23:20:07 10° SSE 23:24:43 51° ENE 23:29:22 10° N
Cosmos 494 Rocket 3.9 23:22:08 10° SSW 23:27:14 90° SE 23:32:20 10° NNE
Cosmos 2278 Rocket 2.6 23:22:43 10° NNW 23:28:17 64° WSW 23:33:51 10° S
ATLAS 5 CENTAUR R/B 4.1 23:23:46 10° NW 23:29:42 37° WSW 23:36:21 10° S
Centaur AC-119 4.3 23:26:48 10° S 23:30:13 24° SE 23:37:48 10° E
NOAA 6 4.5 23:26:02 10° S 23:31:04 65° WSW 23:36:08 10° NNW
CBERS 1 LM4 rocket 4.5 23:27:52 10° SSE 23:32:54 83° ENE 23:38:07 10° N
Cosmos 192 4.3 23:29:06 10° N 23:34:01 75° ENE 23:38:56 10° SSE
USA 308 4.5 23:33:36 10° WNW 23:36:05 21° SW 23:38:53 10° S
Radarsat Rocket 4.2 23:30:46 10° S 23:36:33 72° WSW 23:42:36 10° NNW
SJ-6B 3.9 23:35:03 18° ESE 23:36:38 23° ENE 23:39:38 10° NNE
Landsat 7 3.7 23:40:03 10° SSE 23:44:45 89° ENE 23:49:26 10° N
USA 290 2.8 23:43:10 10° N 23:46:08 36° ENE 23:46:55 30° ESE
Tsikada Rocket 4.1 23:41:17 10° SSE 23:47:15 53° E 23:53:15 10° NNE
Cosmos 1603 3.6 23:45:44 10° SSW 23:51:21 87° ESE 23:57:01 10° NNE
